#timestamp,LO_Frequency,Hit,StdDev 
1644030015.2,286046998.5,N
1644030035.0,286046998.9,N
1644030035.9,286046998.9,N
1644030055.8,286046999.6,N
1644030075.6,286046998.9,N
1644030095.5,286046998.3,N
1644030115.3,286046998.2,N
1644030135.1,286046999.0,N
1644030155.9,286046999.5,N
1644030175.7,286046995.9,Y
1644030195.6,286046995.5,P
1644030215.4,286046995.1,N
1644030235.2,286046999.4,N
1644030255.1,286046996.9,N
1644030256.0,286046996.9,N
1644030275.8,286046997.1,N
1644030295.7,286046997.7,N
1644030315.5,286046997.2,N
1644030335.4,286046999.3,N
1644030355.2,286046998.5,N
1644030375.0,286047000.8,N
1644030375.9,286047000.8,N
1644030395.8,286047000.7,N
1644030415.6,286047000.6,N
1644030435.4,286047002.6,N
1644030455.3,286047002.0,N
1644030475.1,286047002.0,N
1644030495.9,286047002.7,N
1644030515.7,286047002.0,N
1644030535.5,286047002.7,N
1644030555.4,286046999.8,N
1644030575.2,286047002.4,N
1644030595.0,286047000.4,N
1644030595.9,286047000.4,N
1644030615.8,286047000.2,N
1644030635.6,286047000.1,N
1644030655.5,286046999.9,N
1644030675.3,286046999.9,N
1644030695.1,286047000.3,N
1644030715.9,286047000.1,N
1644030735.7,286047002.8,N
1644030755.5,286047000.6,N
1644030775.4,286046998.1,N
1644030795.2,286047001.1,N
1644030815.1,286047000.9,N
1644030816.0,286047000.9,N
1644030835.8,286047000.0,N
1644030855.6,286047000.5,N
1644030875.5,286046998.5,N
1644030895.3,286046999.5,N
1644030915.1,286047001.2,N
1644030935.9,286047000.8,N
1644030955.7,286047000.7,N
1644030975.6,286046998.4,N
1644030995.4,286046998.1,N
1644031015.2,286047000.7,N
1644031035.1,286047001.0,N
1644031036.0,286047001.0,N
1644031055.8,286047000.3,N
1644031075.6,286047000.2,N
1644031095.5,286047000.3,N
1644031115.3,286047000.0,N
1644031135.2,286046998.2,N
1644031155.9,286046999.0,N
1644031175.7,286046998.7,N
1644031195.6,286046998.2,N
1644031215.4,286047000.8,N
1644031235.2,286046998.6,N
1644031255.1,286046999.9,N
1644031256.0,286046999.9,N
1644031275.8,286047000.7,N
1644031295.7,286046999.4,N
1644031315.5,286046998.3,N
1644031335.3,286047000.3,N
1644031355.2,286047000.7,N
1644031375.0,286047000.9,N
1644031375.9,286047000.9,N
1644031395.8,286047001.2,N
1644031415.6,286046998.1,N
1644031435.4,286047000.7,N
1644031455.3,286047000.7,N
1644031475.1,286046999.9,N
1644031495.8,286046998.4,N
1644031515.7,286046999.5,N
1644031535.5,286047000.8,N
1644031555.3,286046998.1,N
1644031575.2,286046998.9,N
1644031595.0,286046998.7,N
1644031595.9,286046998.7,N
1644031615.8,286046998.7,N
1644031635.6,286046998.7,N
1644031655.4,286046998.3,N
1644031675.3,286047001.2,N
1644031695.1,286047001.1,N
1644031715.9,286047000.9,N
1644031735.7,286046998.5,N
1644031755.5,286046999.0,N
1644031775.4,286046998.9,N
1644031795.2,286046998.7,N
1644031815.0,286047000.7,N
1644031815.9,286047000.7,N
1644031835.8,286047000.4,N
1644031855.6,286046998.6,N
1644031875.5,286046996.5,Y
1644031895.3,286046999.3,P
1644031915.1,286047001.2,P
1644031935.9,286047001.0,N
1644031955.7,286046999.8,N
1644031975.5,286047000.5,N
1644031995.4,286047000.2,N
1644032045.3,286046998.1,E
1644032055.2,286047000.4,N
1644032075.0,286046999.7,P
1644032075.9,286046999.7,N
1644032095.8,286047002.5,Y
1644032115.6,286047001.5,P
1644032135.4,286047001.7,N
1644032155.3,286047004.1,P
1644032175.1,286047003.3,N
1644032195.8,286047005.5,Y
1644032215.7,286047003.9,P
1644032235.5,286047001.7,N
1644032255.4,286047002.4,N
1644032275.2,286047001.6,N
1644032295.0,286047001.7,N
1644032295.9,286047001.7,N
1644032315.8,286047001.3,N
1644032335.6,286047001.3,N
1644032355.5,286047004.2,Y
1644032375.3,286047000.4,P
1644032395.1,286047000.9,N
1644032415.9,286047000.5,N
1644032435.7,286047001.1,N
1644032455.5,286047001.1,N
1644032475.4,286047001.2,N
1644032495.2,286046998.5,Y
1644032515.1,286046999.5,P
1644032516.0,286046999.5,N
1644032535.8,286046999.4,N
1644032555.6,286046998.6,N
1644032575.5,286046998.1,N
1644032595.3,286046999.3,N
1644032615.1,286046998.6,N
1644032635.9,286046999.3,N
1644032655.7,286046998.8,N
1644032675.6,286046999.2,N
1644032695.4,286047001.1,N
1644032715.2,286047001.2,N
1644032735.1,286047001.2,N
1644032736.0,286047001.2,N
1644032755.8,286047002.4,N
1644032775.6,286047002.8,N
1644032795.5,286047000.8,N
1644032815.3,286047001.0,N
1644032835.2,286047000.5,N
1644032855.9,286047000.5,N
1644032875.7,286047002.8,N
1644032895.6,286046999.9,N
1644032915.4,286047000.0,N
1644032935.2,286047000.3,N
1644032955.1,286047001.4,N
1644032956.0,286047001.4,N
1644032975.8,286047002.8,N
1644032995.7,286047001.1,N
1644033015.5,286046998.1,N
1644033035.3,286047001.0,N
1644033055.2,286047000.7,N
1644033075.0,286047000.8,N
1644033075.9,286047000.8,N
1644033095.8,286046998.2,N
1644033115.6,286046998.3,N
1644033135.4,286046998.8,N
1644033155.3,286046999.3,N
1644033175.1,286046998.2,N
1644033195.8,286046997.0,N
1644033215.7,286046996.6,N
1644033235.5,286047001.2,N
1644033255.4,286047001.2,N
1644033275.2,286046998.7,N
1644033295.0,286046998.1,N
1644033295.9,286046998.1,N
1644033315.8,286046998.1,N
1644033335.6,286047000.8,N
1644033355.4,286046998.2,N
1644033375.3,286046999.2,N
1644033395.1,286046998.4,N
1644033415.9,286046998.1,N
1644033435.7,286046998.2,N
1644033455.5,286046998.5,N
1644033475.4,286047001.0,N
1644033495.2,286046998.4,N
1644033515.0,286047001.2,N
1644033515.9,286047001.2,N
1644033535.8,286046998.9,N
1644033555.6,286046996.6,N
1644033575.5,286046997.6,N
1644033595.3,286046995.9,N
